Wind_Speed
14 14 10 10 11 10 7 4 3 5 5 6 7 6 7 9 9 8 10 12 13 11 9 9 8 8 7 8 9 9 11 10 11 9 8 8 9 11 13 12 10 11 10
14 12 10 10 9 7 5 4 6 4 5 5 7 7 6 7 8 9 8 10 10 9 7 7 6 6 7 7 9 8 10 9 8 7 7 9 10 12 13 11 11 11 11
10 11 12 7 10 6 3 2 2 4 6 7 7 7 5 6 6 8 8 7 7 6 4 4 4 5 5 6 8 8 8 8 10 10 8 9 11 12 12 14 16 15 14
11 11 8 9 7 6 6 5 3 6 7 6 4 6 5 5 6 7 7 6 5 4 2 1 2 2 3 5 6 7 7 8 9 9 8 8 10 10 11 13 15 14 15
11 10 10 9 8 15 11 10 7 7 9 6 4 4 5 4 7 7 6 4 2 2 2 0 0 1 2 2 4 5 6 7 7 7 6 9 9 8 9 11 12 13 14
12 13 11 11 15 12 12 9 8 8 8 5 5 6 5 7 8 12 9 4 4 5 5 3 2 1 1 0 2 3 4 5 4 4 5 6 6 6 7 9 10 11 13
12 11 10 11 10 11 12 11 9 5 4 4 5 5 7 10 10 5 4 6 10 11 9 7 5 3 3 2 2 0 1 2 3 1 3 4 4 4 6 7 8 8 10
12 12 10 10 11 12 12 9 7 4 3 1 3 5 3 6 2 3 2 3 6 8 9 8 8 6 4 4 5 4 2 2 0 1 1 1 2 4 4 5 6 7 7
13 14 13 11 12 11 11 10 6 4 2 0 1 3 5 4 4 4 4 5 6 5 9 11 11 9 7 6 8 9 5 5 3 4 3 4 1 2 2 2 3 4 4
14 14 13 13 12 12 12 10 8 5 1 1 2 1 2 2 3 4 5 7 9 10 10 11 12 15 17 14 12 12 9 8 7 5 5 5 3 2 1 1 0 1 2
14 13 13 12 12 13 12 10 9 7 7 4 3 3 2 1 3 3 6 7 8 9 11 12 13 14 13 17 16 14 12 9 11 4 7 7 6 5 5 3 3 2 2
13 13 12 12 11 11 10 9 8 7 6 5 3 2 2 2 4 5 7 10 10 9 10 13 15 16 15 16 17 16 14 12 12 13 12 8 8 8 8 7 6 6 5
14 13 13 12 12 10 9 7 6 5 5 5 3 2 3 4 6 7 7 10 10 11 12 14 18 18 16 17 18 17 16 13 14 15 14 11 11 12 12 10 9 9 8
15 14 14 13 12 12 12 11 7 5 5 4 3 2 3 6 8 10 12 12 15 16 15 15 16 8 16 19 19 18 18 20 18 17 16 15 16 16 16 13 12 12 12
16 15 15 15 14 13 13 15 12 8 7 9 8 9 9 9 9 8 11 14 14 15 16 18 19 15 13 13 19 19 17 18 23 23 20 20 18 20 19 17 15 15 14
13 14 13 13 12 12 11 12 15 13 9 10 10 9 10 11 12 14 16 15 14 15 17 22 21 15 14 7 12 13 19 19 22 25 25 25 25 25 21 20 18 17 16
13 14 12 13 13 13 13 14 13 15 16 16 16 14 12 12 14 14 14 16 16 16 18 25 28 11 15 15 16 15 19 21 21 23 25 25 25 25 22 20 21 19 18
10 9 8 9 9 10 10 11 11 12 12 12 9 12 14 14 15 14 15 15 15 16 18 18 21 27 23 22 17 15 21 25 27 23 22 27 30 30 22 22 24 23 21
5 6 6 5 5 6 7 8 10 10 10 11 12 10 13 14 15 16 17 17 18 17 18 18 16 16 18 20 22 26 29 19 27 27 28 24 31 32 29 26 27 25 24
4 5 4 4 4 5 6 7 9 9 9 10 11 10 12 12 15 16 18 20 18 20 20 19 19 20 22 22 21 21 22 25 25 18 24 29 28 33 36 32 29 26 28
5 7 8 7 4 4 5 6 8 9 10 10 12 13 14 15 15 16 18 18 19 19 20 22 24 23 24 24 23 24 23 24 22 32 26 27 27 28 30 34 33 30 32
7 8 7 6 4 2 3 5 7 8 8 10 13 13 14 16 19 21 23 25 23 22 23 25 27 29 30 29 27 27 26 26 22 18 26 21 27 23 29 35 38 38 35
4 5 5 7 8 6 3 4 5 6 8 10 12 15 18 21 23 24 26 28 29 29 28 28 29 30 31 34 33 32 29 26 29 28 22 23 22 29 28 29 35 39 41
9 10 7 6 8 9 7 5 6 8 10 14 16 19 21 22 23 24 26 26 27 29 31 33 34 34 34 35 36 37 37 33 29 24 30 27 23 16 24 23 30 36 39
15 16 14 10 9 10 9 8 9 11 13 14 15 17 20 23 26 27 28 28 29 31 33 33 36 40 40 40 39 37 36 35 35 33 23 31 32 29 27 28 26 28 29
15 13 15 14 11 11 12 14 16 16 18 20 21 24 26 29 30 32 33 33 35 35 35 35 38 40 42 44 44 43 41 40 40 38 37 30 30 36 32 31 30 28 31
Wind_Direction
112 123 122 135 140 151 160 169 153 137 135 128 121 105 119 114 110 119 129 129 127 123 123 114 106 97 88 82 80 74 77 65 63 74 76 65 66 56 46 39 46 45 40
105 98 113 132 139 144 168 179 253 141 118 127 117 113 129 129 134 129 134 126 123 121 115 107 100 92 84 80 75 71 72 67 66 68 67 71 58 47 49 50 54 56 60
120 113 133 111 125 135 78 178 274 166 152 134 128 125 151 151 139 131 130 126 113 111 100 97 94 100 87 81 78 69 64 57 57 60 56 57 53 43 53 60 64 69 66
105 109 136 124 115 116 97 111 151 157 143 149 155 144 158 172 170 154 147 142 130 119 121 64 73 92 95 84 73 69 66 57 57 64 52 46 45 39 57 67 71 67 70
106 115 108 101 109 117 109 104 125 152 167 192 191 176 170 194 204 186 165 157 153 162 233 206 173 85 98 66 64 66 65 59 58 64 65 49 38 40 54 69 70 73 69
105 118 112 103 127 96 101 107 128 144 160 193 218 203 229 236 237 213 169 155 182 230 251 262 263 218 136 100 58 67 66 78 61 44 54 54 52 49 57 62 71 76 79
97 99 109 108 112 104 113 112 111 135 179 209 238 249 256 249 270 316 159 216 238 239 256 252 250 242 240 241 267 311 38 87 110 84 56 25 38 56 58 56 58 68 72
106 103 101 112 105 113 119 106 108 117 147 221 269 267 322 36 27 36 347 245 243 259 259 249 260 259 257 255 262 257 219 226 257 211 177 166 2 44 62 64 56 56 58
102 106 113 107 97 106 100 100 96 116 97 100 276 320 340 1 326 313 294 286 271 276 264 248 255 255 263 265 272 268 253 260 214 236 254 247 146 15 39 48 64 55 33
106 107 106 99 97 89 87 89 92 89 111 55 310 334 341 343 303 300 289 282 281 287 280 272 272 267 257 255 266 262 255 262 266 252 233 264 255 235 247 242 257 50 7
104 104 105 100 89 89 91 95 104 108 99 91 77 80 104 267 284 296 292 297 302 302 297 282 271 272 267 254 266 258 256 252 263 266 216 243 243 250 262 238 250 241 267
95 96 97 95 98 103 106 105 108 109 109 107 84 52 48 356 343 341 344 344 337 320 295 292 277 262 261 263 267 267 265 263 251 260 258 253 252 251 243 247 249 249 238
85 89 88 88 90 89 93 96 95 102 100 93 80 43 347 1 359 351 351 358 359 359 342 337 299 262 253 255 257 264 265 270 267 259 256 245 241 243 246 240 239 251 251
80 81 83 79 81 82 75 62 58 61 70 82 69 51 15 23 16 4 11 14 17 16 6 351 351 325 266 262 263 257 263 264 260 260 257 252 253 249 247 237 238 241 245
77 78 80 79 75 75 77 61 54 61 61 56 54 52 46 43 36 29 21 25 21 6 359 352 347 339 319 267 270 268 270 272 258 256 255 254 254 259 248 248 241 240 240
82 80 76 76 69 66 66 63 53 65 59 55 44 35 32 24 19 16 17 28 23 9 1 357 331 343 343 329 300 273 273 279 272 257 251 258 261 256 248 246 249 247 243
80 75 73 65 58 55 57 50 55 58 55 48 44 45 39 30 27 13 8 5 2 359 345 356 5 338 348 348 328 299 277 280 274 264 264 258 263 260 248 248 250 246 246
88 84 73 67 55 52 50 57 53 53 57 62 54 33 39 29 21 11 3 2 356 349 358 2 359 2 0 359 340 315 288 280 274 263 267 257 258 251 255 255 251 247 243
80 83 79 74 68 55 57 57 52 54 52 45 36 16 10 4 1 355 353 350 347 342 341 342 343 336 339 340 335 337 343 329 278 265 261 279 256 246 246 251 249 249 248
60 44 48 61 49 41 50 44 37 36 32 25 22 21 3 358 348 342 337 334 334 334 335 336 335 332 329 336 335 333 330 337 345 273 267 272 271 251 238 248 253 252 252
46 37 25 13 12 21 27 21 19 15 7 8 359 359 354 346 344 339 331 325 326 323 327 328 328 327 323 323 324 326 328 327 327 335 278 266 271 262 242 246 256 256 255
345 341 345 9 4 336 347 3 359 352 351 348 345 344 341 340 340 339 336 336 333 333 333 332 331 330 328 326 324 323 322 319 326 317 328 303 253 265 255 251 255 256 257
342 345 337 338 348 6 347 335 331 335 345 341 340 342 341 340 336 330 330 330 331 331 331 331 331 328 326 323 323 320 318 315 315 314 310 303 296 286 275 268 257 256 250
342 355 351 342 339 348 1 356 346 345 345 342 341 333 333 327 321 321 322 324 324 326 328 327 326 324 322 319 317 317 316 315 309 301 302 299 298 279 298 293 277 260 253
348 345 335 334 334 339 346 351 347 342 337 330 324 323 320 320 320 319 322 325 324 322 323 323 324 321 319 317 316 314 312 311 309 306 296 292 299 289 281 279 285 264 263
329 334 333 322 328 336 340 341 337 334 330 324 320 318 317 318 320 325 325 323 322 323 321 320 318 316 315 314 314 312 311 310 308 305 301 294 287 288 287 281 278 270 278
Height
5915 5916 5918 5918 5918 5918 5920 5922 5922 5922 5923 5924 5923 5923 5924 5924 5925 5926 5925 5925 5925 5925 5926 5925 5926 5926 5926 5926 5925 5925 5925 5925 5924 5924 5924 5924 5923 5920 5918 5917 5915 5915 5915
5918 5917 5918 5919 5919 5921 5921 5923 5924 5925 5924 5925 5926 5925 5926 5927 5928 5927 5928 5927 5927 5928 5928 5928 5928 5927 5929 5928 5927 5926 5926 5926 5927 5926 5925 5924 5924 5922 5921 5920 5918 5917 5916
5919 5919 5919 5920 5920 5922 5923 5923 5924 5925 5926 5927 5928 5928 5928 5928 5929 5929 5929 5929 5929 5929 5930 5929 5929 5929 5929 5929 5929 5928 5927 5927 5927 5926 5926 5925 5925 5925 5924 5922 5920 5919 5918
5919 5919 5921 5922 5922 5922 5924 5924 5926 5927 5927 5928 5929 5928 5929 5929 5929 5929 5929 5929 5930 5930 5930 5930 5931 5930 5930 5930 5930 5930 5929 5929 5929 5928 5928 5928 5927 5927 5925 5924 5922 5922 5920
5919 5921 5922 5922 5922 5924 5925 5925 5926 5927 5928 5929 5929 5930 5929 5929 5929 5930 5930 5930 5930 5930 5930 5930 5930 5930 5931 5931 5931 5931 5930 5931 5931 5931 5930 5930 5930 5930 5929 5927 5926 5924 5923
5921 5922 5923 5923 5924 5925 5925 5926 5928 5928 5929 5930 5930 5930 5931 5930 5930 5929 5929 5931 5930 5931 5930 5930 5930 5931 5931 5931 5931 5931 5931 5931 5932 5931 5931 5931 5932 5931 5930 5929 5928 5927 5925
5921 5923 5925 5925 5925 5926 5927 5929 5930 5930 5931 5931 5932 5932 5932 5930 5930 5929 5929 5930 5930 5931 5931 5929 5929 5930 5931 5932 5931 5931 5930 5931 5932 5933 5932 5933 5933 5933 5932 5931 5931 5930 5928
5924 5925 5926 5927 5927 5927 5929 5930 5930 5931 5932 5933 5933 5932 5932 5930 5931 5930 5930 5931 5931 5931 5931 5930 5930 5930 5930 5931 5931 5932 5932 5931 5931 5932 5931 5933 5934 5934 5933 5932 5932 5932 5931
5925 5926 5928 5928 5929 5929 5929 5931 5932 5932 5933 5933 5933 5933 5932 5932 5931 5930 5931 5931 5932 5931 5930 5930 5930 5929 5930 5929 5929 5930 5931 5930 5931 5931 5932 5932 5932 5933 5933 5933 5932 5932 5932
5926 5927 5928 5929 5930 5929 5930 5931 5932 5933 5933 5933 5932 5931 5931 5930 5931 5931 5931 5931 5931 5930 5930 5930 5929 5928 5927 5927 5927 5928 5929 5928 5929 5929 5930 5930 5930 5930 5932 5932 5932 5931 5931
5928 5929 5929 5930 5930 5930 5931 5932 5933 5933 5932 5932 5931 5930 5930 5930 5930 5930 5929 5929 5930 5930 5929 5928 5928 5927 5927 5927 5926 5926 5926 5927 5926 5927 5927 5928 5929 5929 5930 5930 5931 5931 5931
5929 5930 5931 5931 5932 5932 5933 5933 5933 5933 5933 5932 5931 5930 5930 5930 5930 5931 5930 5930 5928 5927 5926 5925 5924 5924 5924 5925 5925 5924 5925 5925 5924 5924 5925 5926 5927 5927 5927 5928 5929 5930 5929
5932 5932 5933 5933 5933 5933 5934 5934 5933 5933 5933 5933 5933 5931 5930 5930 5930 5930 5929 5929 5927 5926 5925 5923 5919 5919 5920 5920 5921 5922 5922 5923 5923 5923 5923 5922 5922 5923 5924 5924 5925 5926 5927
5934 5935 5935 5935 5935 5935 5936 5935 5934 5934 5933 5933 5933 5933 5932 5931 5931 5930 5928 5929 5927 5925 5923 5920 5918 5915 5917 5917 5917 5917 5917 5918 5919 5919 5919 5918 5919 5919 5920 5920 5921 5923 5924
5937 5937 5938 5938 5938 5937 5937 5937 5936 5935 5934 5934 5935 5934 5934 5934 5933 5932 5930 5928 5926 5924 5921 5919 5916 5913 5912 5913 5914 5914 5913 5914 5915 5914 5914 5914 5916 5916 5917 5917 5917 5919 5920
5940 5940 5940 5940 5940 5939 5938 5938 5937 5936 5936 5935 5936 5935 5934 5933 5932 5931 5929 5927 5926 5924 5921 5918 5914 5912 5911 5910 5910 5910 5910 5909 5911 5911 5909 5910 5911 5913 5912 5913 5914 5915 5915
5941 5941 5942 5941 5941 5940 5940 5939 5938 5937 5936 5935 5936 5936 5934 5933 5931 5931 5929 5927 5924 5922 5919 5917 5912 5911 5910 5908 5908 5907 5906 5905 5904 5905 5907 5905 5906 5910 5909 5909 5910 5911 5911
5943 5943 5943 5942 5942 5941 5941 5941 5940 5939 5939 5939 5937 5935 5934 5932 5931 5930 5928 5926 5924 5922 5918 5916 5913 5911 5909 5908 5906 5905 5903 5900 5899 5900 5900 5901 5901 5902 5903 5905 5905 5906 5906
5944 5944 5943 5943 5942 5941 5942 5941 5941 5940 5939 5938 5936 5935 5933 5932 5931 5929 5927 5925 5923 5920 5917 5914 5912 5910 5908 5906 5903 5901 5897 5894 5893 5893 5895 5895 5896 5895 5895 5898 5900 5900 5901
5945 5944 5944 5943 5942 5940 5940 5940 5939 5938 5937 5936 5936 5935 5934 5932 5930 5928 5925 5922 5921 5917 5915 5913 5911 5908 5906 5904 5902 5899 5896 5893 5889 5888 5890 5889 5889 5890 5888 5890 5894 5895 5896
5946 5944 5942 5941 5939 5939 5939 5939 5938 5937 5936 5935 5935 5934 5932 5930 5929 5927 5924 5922 5919 5916 5912 5910 5908 5905 5903 5900 5899 5897 5894 5891 5889 5888 5885 5885 5885 5885 5884 5886 5887 5889 5890
5946 5945 5944 5942 5940 5938 5938 5937 5937 5936 5934 5933 5933 5932 5931 5928 5926 5923 5921 5918 5916 5913 5910 5906 5903 5900 5896 5895 5894 5892 5891 5889 5888 5885 5883 5879 5880 5880 5878 5875 5878 5881 5883
5944 5943 5943 5941 5939 5937 5936 5936 5935 5934 5933 5932 5931 5930 5928 5926 5924 5921 5918 5914 5911 5909 5906 5903 5900 5897 5894 5889 5888 5887 5886 5885 5881 5877 5878 5876 5876 5871 5869 5867 5869 5871 5874
5944 5941 5940 5939 5938 5937 5936 5934 5933 5933 5932 5930 5928 5926 5924 5924 5922 5920 5916 5912 5909 5905 5901 5898 5895 5892 5890 5886 5882 5879 5877 5877 5878 5878 5870 5871 5870 5865 5865 5863 5863 5864 5865
5942 5941 5940 5938 5936 5935 5934 5932 5931 5930 5929 5927 5926 5924 5922 5920 5916 5914 5910 5907 5904 5901 5897 5893 5890 5885 5882 5879 5876 5874 5871 5868 5867 5867 5870 5863 5861 5860 5859 5858 5856 5855 5857
5940 5939 5939 5938 5935 5933 5932 5930 5928 5926 5924 5922 5921 5918 5915 5912 5909 5905 5902 5899 5896 5893 5890 5887 5884 5881 5877 5873 5868 5864 5861 5859 5856 5855 5856 5858 5855 5849 5852 5852 5851 5850 5849